Millville, NJ

2:33 PM EST on December 07, 2019 (GMT -0500)
Millville Municipal

Weather History for KMIV - November, 2019

Change the Weather History Date:

Saturday, November 16, 2019

  Actual Average Record
Temperature  
Mean Temperature 40 °F -  
Max Temperature 45 °F 54 °F 72 °F (1951)
Min Temperature 35 °F 33 °F 18 °F (1967)
Degree Days  
Heating Degree Days 24    
Moisture  
Dew Point 18 °F    
Average Humidity 44    
Maximum Humidity 65    
Minimum Humidity 27    
Precipitation  
Precipitation 0.00 in - - ()
Sea Level Pressure  
Sea Level Pressure 30.34 in    
Wind  
Wind Speed 11 mph ()    
Max Wind Speed 21 mph    
Max Gust Speed 32 mph    
Visibility 10.0 miles    
Events      
Averages and records for this station are not official NWS values.
T = Trace of Precipitation, MM = Missing Value Source: Averaged Metar Reports

Daily Weather History Graph

Daily Weather History Graph

Search for Another Location

Airport or City:

Astronomy

Nov. 16, 2019 Rise Set
Actual Time 6:44 AM EST 4:44 PM EST
Civil Twilight 6:16 AM EST 5:13 PM EST
Nautical Twilight 5:43 AM EST 5:46 PM EST
Astronomical Twilight 5:11 AM EST 6:17 PM EST
Moon 8:15 PM EST (11/16) 10:35 AM EST (11/16)
Length of Visible Light 10h 57m
Length of Day
9h 59m
Waning Gibbous, 82% of the Moon is Illuminated
Nov 16
Waning Gibbous
Nov 19
Last Quarter
Nov 26
New
Dec 4
First Quarter
Dec 12
Full

Hourly Weather History & Observations

Time (EST) Temp. Windchill Dew Point Humidity Pressure Visibility Wind Dir Wind Speed Gust Speed Precip Events Conditions
12:54 AM 39.0 °F 34.0 °F 25.0 °F 57% 30.23 in 10.0 mi North 6.9 mph - N/A   Clear
1:54 AM 39.9 °F 33.9 °F 27.0 °F 60% 30.23 in 10.0 mi North 9.2 mph - N/A   Clear
2:54 AM 39.0 °F 32.3 °F 27.0 °F 62% 30.25 in 10.0 mi NNE 10.4 mph - N/A   Clear
3:54 AM 37.0 °F 30.4 °F 26.1 °F 65% 30.26 in 10.0 mi NNE 9.2 mph - N/A   Clear
4:54 AM 37.0 °F 29.8 °F 24.1 °F 59% 30.28 in 10.0 mi NNE 10.4 mph - N/A   Clear
5:54 AM 36.0 °F 29.6 °F 24.1 °F 62% 30.30 in 10.0 mi North 8.1 mph - N/A   Clear
6:54 AM 36.0 °F 27.5 °F 24.1 °F 62% 30.32 in 10.0 mi NNE 12.7 mph 19.6 mph N/A   Clear
7:54 AM 37.9 °F 28.9 °F 24.1 °F 57% 30.34 in 10.0 mi NE 16.1 mph 25.3 mph N/A   Partly Cloudy
8:54 AM 39.9 °F 31.1 °F 21.0 °F 47% 30.36 in 10.0 mi NNE 17.3 mph 27.6 mph N/A   Clear
9:54 AM 41.0 °F 33.1 °F 17.1 °F 38% 30.38 in 10.0 mi NE 15.0 mph 27.6 mph N/A   Clear
10:54 AM 43.0 °F 34.8 °F 18.0 °F 37% 30.38 in 10.0 mi NE 18.4 mph 25.3 mph N/A   Clear
11:54 AM 45.0 °F 36.9 °F 12.9 °F 27% 30.38 in 10.0 mi ENE 20.7 mph 32.2 mph N/A   Clear
12:54 PM 45.0 °F 37.6 °F 14.0 °F 29% 30.36 in 10.0 mi NE 17.3 mph 28.8 mph N/A   Clear
1:54 PM 44.1 °F 36.5 °F 14.0 °F 30% 30.36 in 10.0 mi ENE 17.3 mph 26.5 mph N/A   Clear
2:54 PM 43.0 °F 34.5 °F 16.0 °F 34% 30.36 in 10.0 mi ENE 19.6 mph 25.3 mph N/A   Clear
3:54 PM 41.0 °F 32.5 °F 16.0 °F 36% 30.38 in 10.0 mi ENE 17.3 mph 25.3 mph N/A   Clear
4:54 PM 39.0 °F 31.0 °F 17.1 °F 41% 30.38 in 10.0 mi ENE 13.8 mph - N/A   Clear
5:54 PM 39.0 °F 31.4 °F 16.0 °F 39% 30.40 in 10.0 mi NNE 12.7 mph - N/A   Overcast
6:54 PM 37.9 °F 30.9 °F 14.0 °F 38% 30.40 in 10.0 mi NNE 10.4 mph - N/A   Overcast
7:54 PM 37.0 °F 29.3 °F 10.9 °F 34% 30.37 in 10.0 mi NNE 11.5 mph - N/A   Overcast
8:54 PM 37.0 °F 28.5 °F 12.0 °F 36% 30.35 in 10.0 mi NNE 13.8 mph - N/A   Overcast
9:54 PM 37.9 °F 30.0 °F 12.0 °F 35% 30.35 in 10.0 mi NNE 12.7 mph 19.6 mph N/A   Overcast
10:54 PM 37.9 °F 30.0 °F 14.0 °F 38% 30.35 in 10.0 mi NNE 12.7 mph - N/A   Overcast
11:54 PM 35.1 °F 27.9 °F 10.9 °F 37% 30.34 in 10.0 mi NNE 9.2 mph 19.6 mph N/A   Mostly Cloudy